Printer-friendly version

IAU Minor Planet Center

Minor Planet Center

MPEC 2004-F58 : 2004 FN8

The following Minor Planet Electronic Circular may be linked-to from your own Web pages, but must not otherwise be redistributed electronically.


Read MPEC 2004-F57 Read MPEC 2004-F59


M.P.E.C. 2004-F58                                Issued 2004 Mar. 25, 22:34 UT

     The Minor Planet Electronic Circulars contain information on unusual
         minor planets and routine data on comets.  They are published
   on behalf of Commission 20 of the International Astronomical Union by the
          Minor Planet Center, Smithsonian Astrophysical Observatory,
                          Cambridge, MA 02138, U.S.A.

         Supported in part by the Steven and Michele Kirsch Foundation
             Prepared using the Tamkin Foundation Computer Network

                              MPC@CFA.HARVARD.EDU
          URL http://cfa-www.harvard.edu/iau/mpc.html  ISSN 1523-6714

                                   2004 FN8

Observations:
     K04F08N* C2004 03 23.23327 09 50 38.46 +28 30 59.1          19.5   EF058704
     K04F08N  C2004 03 23.24424 09 50 42.24 +28 25 18.8          19.8   EF058704
     K04F08N  C2004 03 23.25573 09 50 46.36 +28 19 20.5          19.8   EF058704
     K04F08N  C2004 03 23.26690 09 50 50.41 +28 13 31.6          19.5   EF058704
     K04F08N  C2004 03 23.27799 09 50 54.51 +28 07 43.0          19.9   EF058704
     K04F08N  C2004 03 25.16863 10 09 43.04 +10 59 27.4          19.6   EF058704
     K04F08N  C2004 03 25.16879 10 09 43.11 +10 59 22.3          19.4   EF058704
     K04F08N  C2004 03 25.17900 10 09 46.22 +10 53 41.8          20.0   EF058704
     K04F08N  C2004 03 25.17916 10 09 46.23 +10 53 35.8          19.5   EF058704
     K04F08N  C2004 03 25.18944 10 09 49.28 +10 47 52.5          20.3   EF058704
     K04F08N  C2004 03 25.18960 10 09 49.26 +10 47 48.8          19.7   EF058704
     K04F08N  C2004 03 25.19981 10 09 52.36 +10 42 06.9          19.6   EF058704
     K04F08N  C2004 03 25.19996 10 09 52.39 +10 42 02.2          19.4   EF058704
     K04F08N  C2004 03 25.21035 10 09 55.37 +10 36 14.2          20.0   EF058704
     K04F08N  C2004 03 25.21051 10 09 55.51 +10 36 09.0          19.6   EF058704

Observer details:
704 Lincoln Laboratory ETS, New Mexico.  Observers M. Blythe, F. Shelly,
    M. Bezpalko, R. Huber, L. Manguso, D. Torres, R. Kracke, M. McCleary,
    H. Stange, A. Milner.  Measurers J. Stuart, R. Sayer, J. Evans, J. Kommers.
    1.0-m f/2.15 reflector + CCD.

Orbital elements:
2004 FN8
Epoch 2004 July 14.0 TT = JDT 2453200.5                 MPC
M 101.75021              (2000.0)            P               Q
n   0.78050069     Peri.  159.77658     -0.96083069     -0.27705693
a   1.1682986      Node     4.15574     +0.24004758     -0.84394693
e   0.1440841      Incl.    5.24218     +0.13849743     -0.45933978
P   1.26           H   26.9           G   0.15           U   7
Residuals in seconds of arc
040323 704  0.6+  0.5-    040325 704  0.1-  0.3-    040325 704  0.8-  0.7+
040323 704  0.4-  0.4-    040325 704  0.2+  0.0     040325 704  0.5+  0.0
040323 704  0.1+  0.5-    040325 704  0.8+  0.2-    040325 704  0.3+  0.3+
040323 704  0.2+  0.4+    040325 704  0.2+  0.8-    040325 704  0.6-  0.1+
040323 704  0.3+  0.6+    040325 704  0.2+  1.0-    040325 704  0.7+  0.2+

Ephemeris:
2004 FN8                 a,e,i = 1.17, 0.14, 5                   q = 1.0000
Date    TT    R. A. (2000) Decl.     Delta      r     Elong.  Phase     V
2004 03 26    10 16.93   +03 26.1    0.012    1.008   148.6    31.1    18.7
2004 03 28    10 33.29   -13 11.9    0.014    1.010   149.9    29.7    18.9
2004 03 30    10 47.81   -26 00.0    0.016    1.012   146.0    33.5    19.3
2004 04 01    11 00.74   -35 09.7    0.019    1.014   141.4    37.9    19.8
2004 04 03    11 12.29   -41 38.4    0.022    1.016   137.7    41.5    20.3
2004 04 05    11 22.64   -46 17.2    0.026    1.019   134.9    44.0    20.7
2004 04 07    11 31.94   -49 41.0    0.029    1.021   133.0    45.8    21.0
2004 04 09    11 40.32   -52 12.6    0.033    1.024   131.6    47.0    21.3
2004 04 11    11 47.90   -54 06.7    0.037    1.027   130.7    47.7    21.6
2004 04 13    11 54.81   -55 32.8    0.041    1.030   130.1    48.1    21.8
2004 04 15    12 01.16   -56 37.8    0.045    1.033   129.8    48.3    22.0

Kyle E. Smalley              (C) Copyright 2004 MPC           M.P.E.C. 2004-F58

Read MPEC 2004-F57 Read MPEC 2004-F59


Our Web policy. Index to the CBAT/MPC/ICQ pages.


Valid HTML 4.01!